FW6574 Weather Reports


time (UTC)temp
C
wind
direction
speed
KPH
gust
KPH
rain 1hr
cm
rain 24hr
cm
rain mn
cm
humidity
%
barometer
mb
20260504050518 5 0 0.0 0.0 0.00 0.00 0.00 81 1017.0
20260504045515 5 0 0.0 0.0 0.00 0.00 0.00 81 1017.0
20260504045013 5 0 0.0 0.0 0.00 0.00 0.00 81 1017.0
20260504044535 5 0 0.0 0.0 0.00 0.00 0.00 81 1016.9
20260504044015 5 0 0.0 0.0 0.00 0.00 0.00 81 1016.8
20260504043515 5 0 0.0 0.0 0.00 0.00 0.00 80 1016.8
20260504043034 5 0 0.0 0.0 0.00 0.00 0.00 81 1016.5
20260504042516 5 0 0.0 0.0 0.00 0.00 0.00 81 1016.4
20260504042015 5 0 0.0 0.0 0.00 0.00 0.00 81 1016.5
20260504041541 4 0 0.0 0.0 0.00 0.00 0.00 81 1016.2
20260504041015 4 0 0.0 0.0 0.00 0.00 0.00 81 1016.3
20260504040515 4 0 0.0 0.0 0.00 0.00 0.00 81 1016.5
20260504040039 4 0 0.0 0.0 0.00 0.00 0.00 81 1016.5
20260504035515 4 0 0.0 0.0 0.00 0.00 0.00 82 1016.6
20260504035013 4 0 0.0 0.0 0.00 0.00 0.00 82 1016.6
20260504034543 3 0 0.0 0.0 0.00 0.00 0.00 81 1016.7
20260504034016 3 0 0.0 0.0 0.00 0.00 0.00 81 1016.5
20260504033514 3 0 0.0 0.0 0.00 0.00 0.00 81 1016.5
20260504033034 3 0 0.0 0.0 0.00 0.00 0.00 80 1016.4
20260504032515 3 0 0.0 0.0 0.00 0.00 0.00 80 1016.5
20260504032013 4 0 0.0 0.0 0.00 0.00 0.00 80 1016.5
20260504031534 4 0 0.0 0.0 0.00 0.00 0.00 80 1016.4
20260504031015 4 0 0.0 0.0 0.00 0.00 0.00 80 1016.6
20260504030515 4 0 0.0 0.0 0.00 0.00 0.00 78 1016.5
20260504030036 5 0 0.0 0.0 0.00 0.00 0.00 78 1016.5
20260504025515 5 0 0.0 0.0 0.00 0.00 0.00 78 1016.4
20260504025015 5 0 0.0 0.0 0.00 0.00 0.00 77 1016.6
20260504024531 5 0 0.0 0.0 0.00 0.00 0.00 78 1016.6
20260504024015 5 0 0.0 0.0 0.00 0.00 0.00 79 1016.6
20260504023515 5 0 0.0 0.0 0.00 0.00 0.00 77 1016.5
20260504023031 5 0 0.0 0.0 0.00 0.00 0.00 77 1016.7
20260504022515 5 0 0.0 0.0 0.00 0.00 0.00 78 1016.6
20260504022013 5 0 0.0 0.0 0.00 0.00 0.00 77 1016.5
20260504021532 5 0 0.0 0.0 0.00 0.00 0.00 76 1016.4
20260504021012 5 0 0.0 0.0 0.00 0.00 0.00 75 1016.4
20260504020514 6 0 0.0 0.0 0.00 0.00 0.00 75 1016.5
20260504020038 6 0 0.0 0.0 0.00 0.00 0.00 73 1016.4
20260504015511 6 0 0.0 0.0 0.00 0.00 0.00 71 1016.3
20260504015014 6 0 0.0 0.0 0.00 0.00 0.00 71 1016.2
20260504014537 6 0 0.0 0.0 0.00 0.00 0.00 71 1016.3
20260504014017 6 0 0.0 0.0 0.00 0.00 0.00 72 1016.2
20260504013514 6 0 0.0 0.0 0.00 0.00 0.00 72 1016.2
20260504013040 7 0 0.0 0.0 0.00 0.00 0.00 71 1016.0
20260504012513 7 0 0.0 0.0 0.00 0.00 0.00 71 1015.9
20260504012015 7 0 0.0 0.0 0.00 0.00 0.00 69 1015.7
20260504011532 7 0 0.0 0.0 0.00 0.00 0.00 69 1015.8
20260504011012 7 0 0.0 0.0 0.00 0.00 0.00 68 1015.7
20260504010515 8 0 0.0 0.0 0.00 0.00 0.00 67 1015.6
20260504010030 8 0 0.0 0.0 0.00 0.00 0.00 66 1015.7
20260504005513 8 0 0.0 0.0 0.00 0.00 0.00 66 1015.6
20260504005015 8 0 0.0 0.0 0.00 0.00 0.00 64 1015.6
20260504004533 9 0 0.0 0.0 0.00 0.00 0.00 62 1015.5
20260504004013 9 0 0.0 0.0 0.00 0.00 0.00 60 1015.4
20260504003516 10 0 0.0 0.0 0.00 0.00 0.00 63 1015.4
20260504003032 10 0 0.0 0.0 0.00 0.00 0.00 61 1015.3
20260504002514 10 0 0.0 0.0 0.00 0.00 0.00 60 1015.2
20260504002015 11 0 0.0 0.0 0.00 0.00 0.00 56 1015.2
20260504001536 11 0 0.0 0.0 0.00 0.00 0.00 54 1015.2
20260504001013 11 0 0.0 0.0 0.00 0.00 0.00 56 1015.1
20260504000515 12 0 0.0 0.0 0.00 0.00 0.00 55 1015.2
20260504000033 12 0 0.0 0.0 0.00 0.00 0.00 47 1015.0
20260503235513 13 0 0.0 3.2 0.00 0.00 0.00 52 1015.1
20260503235013 13 0 0.0 3.2 0.00 0.00 0.00 50 1015.1
20260503234533 14 0 0.0 3.2 0.00 0.00 0.00 44 1015.1
20260503234013 15 0 0.0 3.2 0.00 0.00 0.00 43 1015.1
20260503233512 15 0 0.0 3.2 0.00 0.00 0.00 35 1015.1
20260503233032 15 0 0.0 3.2 0.00 0.00 0.00 32 1015.1
20260503232517 15 0 0.0 4.8 0.00 0.00 0.00 36 1015.1
20260503232014 16 0 0.0 4.8 0.00 0.00 0.00 35 1014.9
20260503231532 16 0 0.0 4.8 0.00 0.00 0.00 33 1014.9
20260503231014 16 0 0.0 4.8 0.00 0.00 0.00 29 1014.9
20260503230516 16 296 0.0 4.8 0.00 0.00 0.00 28 1014.9
20260503230039 16 306 0.0 4.8 0.00 0.00 0.00 27 1014.8
20260503225514 16 288 1.6 4.8 0.00 0.00 0.00 29 1014.8
20260503225017 17 167 0.0 4.8 0.00 0.00 0.00 31 1014.6
20260503224533 17 0 0.0 6.4 0.00 0.00 0.00 29 1014.7
20260503224020 16 294 1.6 6.4 0.00 0.00 0.00 28 1014.8
20260503223516 16 0 0.0 6.4 0.00 0.00 0.00 28 1014.7
20260503223034 16 279 1.6 9.7 0.00 0.00 0.00 27 1014.9
20260503222516 17 215 1.6 9.7 0.00 0.00 0.00 28 1014.9
20260503222017 16 191 0.0 9.7 0.00 0.00 0.00 29 1015.0
20260503221533 16 234 3.2 9.7 0.00 0.00 0.00 27 1015.0
20260503221017 16 290 1.6 4.8 0.00 0.00 0.00 28 1015.0
20260503220514 16 22 0.0 4.8 0.00 0.00 0.00 27 1014.9
20260503220032 16 271 0.0 6.4 0.00 0.00 0.00 27 1015.2
20260503215516 17 0 1.6 6.4 0.00 0.00 0.00 26 1015.2
20260503215016 17 0 0.0 4.8 0.00 0.00 0.00 26 1015.2
20260503214539 17 167 0.0 4.8 0.00 0.00 0.00 27 1015.1
20260503214016 17 250 1.6 4.8 0.00 0.00 0.00 25 1015.2
20260503213514 17 0 1.6 9.7 0.00 0.00 0.00 25 1015.2
20260503213032 17 352 1.6 12.9 0.00 0.00 0.00 26 1015.2
20260503212515 17 170 0.0 12.9 0.00 0.00 0.00 25 1015.3
20260503212014 17 0 0.0 6.4 0.00 0.00 0.00 27 1015.3
20260503211532 17 0 0.0 6.4 0.00 0.00 0.00 25 1015.3
20260503211018 17 0 1.6 9.7 0.00 0.00 0.00 25 1015.4
20260503210514 17 281 1.6 9.7 0.00 0.00 0.00 26 1015.5
20260503210035 17 268 3.2 12.9 0.00 0.00 0.00 25 1015.4
20260503205517 17 282 4.8 12.9 0.00 0.00 0.00 24 1015.5
20260503205014 17 303 1.6 11.3 0.00 0.00 0.00 25 1015.5
20260503204533 17 280 3.2 11.3 0.00 0.00 0.00 23 1015.6
20260503204015 17 270 1.6 9.7 0.00 0.00 0.00 27 1015.6
20260503203519 17 132 1.6 14.5 0.00 0.00 0.00 25 1015.6
20260503203036 18 302 1.6 14.5 0.00 0.00 0.00 28 1015.7
20260503202519 17 188 1.6 11.3 0.00 0.00 0.00 26 1015.7
20260503202018 17 246 1.6 11.3 0.00 0.00 0.00 28 1015.7
20260503201532 17 173 1.6 11.3 0.00 0.00 0.00 29 1015.8
20260503201016 17 280 3.2 11.3 0.00 0.00 0.00 28 1016.0
20260503200516 16 0 1.6 11.3 0.00 0.00 0.00 28 1016.0
20260503200033 17 290 4.8 11.3 0.00 0.00 0.00 27 1016.3
20260503195516 17 307 3.2 11.3 0.00 0.00 0.00 29 1016.3
20260503195019 17 0 0.0 6.4 0.00 0.00 0.00 30 1016.2
20260503194531 17 0 0.0 6.4 0.00 0.00 0.00 28 1016.3
20260503194015 17 229 1.6 8.0 0.00 0.00 0.00 27 1016.4
20260503193513 17 0 1.6 8.0 0.00 0.00 0.00 28 1016.7
20260503193043 16 241 3.2 11.3 0.00 0.00 0.00 29 1016.7
20260503192514 16 321 3.2 11.3 0.00 0.00 0.00 29 1016.8
20260503192013 16 303 3.2 11.3 0.00 0.00 0.00 28 1016.9
20260503191559 16 165 3.2 11.3 0.00 0.00 0.00 30 1017.0
20260503191013 16 268 4.8 11.3 0.00 0.00 0.00 27 1017.1
20260503190513 16 197 1.6 11.3 0.00 0.00 0.00 28 1017.0
20260503190035 16 276 1.6 12.9 0.00 0.00 0.00 30 1017.1
20260503185516 16 283 4.8 12.9 0.00 0.00 0.00 31 1017.2
20260503185014 16 235 3.2 11.3 0.00 0.00 0.00 29 1017.4
20260503184536 16 229 4.8 11.3 0.00 0.00 0.00 30 1017.6
20260503184013 16 300 3.2 11.3 0.00 0.00 0.00 32 1017.7
20260503183520 16 72 1.6 8.0 0.00 0.00 0.00 31 1017.7
20260503183030 16 330 1.6 8.0 0.00 0.00 0.00 32 1017.8
20260503182512 15 316 3.2 11.3 0.00 0.00 0.00 31 1017.8
20260503182014 15 308 4.8 11.3 0.00 0.00 0.00 31 1017.9
20260503181545 15 250 3.2 11.3 0.00 0.00 0.00 32 1018.0
20260503181014 15 0 3.2 12.9 0.00 0.00 0.00 30 1018.0
20260503180514 15 350 3.2 12.9 0.00 0.00 0.00 33 1018.1
20260503180033 15 279 4.8 14.5 0.00 0.00 0.00 33 1018.2
20260503175513 14 291 1.6 14.5 0.00 0.00 0.00 34 1018.1
20260503175016 14 233 6.4 14.5 0.00 0.00 0.00 34 1018.1
20260503174539 14 0 1.6 9.7 0.00 0.00 0.00 35 1018.2
20260503174016 14 257 3.2 12.9 0.00 0.00 0.00 34 1018.4
20260503173512 14 0 3.2 12.9 0.00 0.00 0.00 36 1018.3
20260503173032 13 246 6.4 12.9 0.00 0.00 0.00 35 1018.4
20260503172510 14 225 3.2 11.3 0.00 0.00 0.00 35 1018.4
20260503172015 14 295 1.6 11.3 0.00 0.00 0.00 36 1018.6
20260503171530 13 252 3.2 11.3 0.00 0.00 0.00 35 1018.6
20260503171014 13 285 3.2 11.3 0.00 0.00 0.00 34 1018.6
20260503170515 14 352 1.6 11.3 0.00 0.00 0.00 36 1018.8
20260503151014 11 237 4.8 16.1 0.00 0.00 0.00 43 1019.9
20260503150512 10 236 4.8 12.9 0.00 0.00 0.00 43 1019.8
20260503131014 7 0 1.6 9.7 0.00 0.00 0.00 51 1019.9
20260503130515 7 0 3.2 9.7 0.00 0.00 0.00 51 1019.8
20260503110515 1 0 0.0 0.0 0.00 0.00 0.00 89 1018.7
20260503081540 1 0 0.0 0.0 0.00 0.00 0.00 90 1016.4
20260503081016 1 0 0.0 0.0 0.00 0.00 0.00 90 1016.5
20260503080514 1 0 0.0 0.0 0.00 0.00 0.00 90 1016.3
20260503072516 1 0 0.0 0.0 0.00 0.00 0.00 89 1016.1
20260503072016 1 0 0.0 0.0 0.00 0.00 0.00 88 1016.2
20260503071533 1 0 0.0 0.0 0.00 0.00 0.00 88 1016.2
20260503071016 1 0 0.0 0.0 0.00 0.00 0.00 88 1016.1
20260503070519 1 0 0.0 0.0 0.00 0.00 0.00 88 1016.1